TimeEST,TemperatureF,Dew PointF,Humidity,Sea Level PressureIn,VisibilityMPH,Wind Direction,Wind SpeedMPH,Gust SpeedMPH,PrecipitationIn,Events,Conditions,WindDirDegrees,DateUTC
12:15 AM,35.6,28.4,75,30.33,10.0,Calm,Calm,-,N/A,,Clear,0,2012-11-16 05:15:00
12:35 AM,33.8,28.4,81,30.33,10.0,Calm,Calm,-,N/A,,Clear,0,2012-11-16 05:35:00
12:55 AM,33.8,28.4,81,30.33,10.0,Calm,Calm,-,N/A,,Clear,0,2012-11-16 05:55:00
1:15 AM,33.8,28.4,81,30.33,10.0,Calm,Calm,-,N/A,,Clear,0,2012-11-16 06:15:00
1:35 AM,32.0,28.4,87,30.33,10.0,Calm,Calm,-,N/A,,Clear,0,2012-11-16 06:35:00
2:15 AM,30.2,28.4,93,30.33,10.0,Calm,Calm,-,N/A,,Clear,0,2012-11-16 07:15:00
2:35 AM,32.0,28.4,87,30.33,10.0,Calm,Calm,-,N/A,,Clear,0,2012-11-16 07:35:00
2:55 AM,30.2,28.4,93,30.33,10.0,Calm,Calm,-,N/A,,Clear,0,2012-11-16 07:55:00
3:15 AM,30.2,26.6,86,30.33,10.0,Calm,Calm,-,N/A,,Clear,0,2012-11-16 08:15:00
3:35 AM,32.0,28.4,87,30.33,10.0,Calm,Calm,-,N/A,,Clear,0,2012-11-16 08:35:00
3:55 AM,30.2,26.6,86,30.33,10.0,Calm,Calm,-,N/A,,Clear,0,2012-11-16 08:55:00
4:15 AM,30.2,26.6,86,30.33,7.0,Calm,Calm,-,N/A,,Clear,0,2012-11-16 09:15:00
4:35 AM,28.4,26.6,93,30.33,7.0,Calm,Calm,-,N/A,,Clear,0,2012-11-16 09:35:00
4:55 AM,28.4,26.6,93,30.34,7.0,Calm,Calm,-,N/A,,Clear,0,2012-11-16 09:55:00
5:15 AM,28.4,26.6,93,30.34,7.0,Calm,Calm,-,N/A,,Clear,0,2012-11-16 10:15:00
5:35 AM,28.4,26.6,93,30.34,7.0,Calm,Calm,-,N/A,,Clear,0,2012-11-16 10:35:00
5:55 AM,28.4,26.6,93,30.34,7.0,Calm,Calm,-,N/A,,Clear,0,2012-11-16 10:55:00
6:15 AM,30.2,26.6,86,30.35,7.0,Calm,Calm,-,N/A,,Clear,0,2012-11-16 11:15:00
6:35 AM,28.4,26.6,93,30.35,7.0,Calm,Calm,-,N/A,,Clear,0,2012-11-16 11:35:00
6:55 AM,28.4,26.6,93,30.35,7.0,Calm,Calm,-,N/A,,Clear,0,2012-11-16 11:55:00
7:15 AM,28.4,26.6,93,30.36,7.0,SE,3.5,-,N/A,,Clear,130,2012-11-16 12:15:00
7:35 AM,26.6,26.6,100,30.37,5.0,ESE,3.5,-,N/A,,Clear,120,2012-11-16 12:35:00
7:55 AM,26.6,24.8,93,30.37,4.0,Calm,Calm,-,N/A,,Clear,0,2012-11-16 12:55:00
8:15 AM,26.6,24.8,93,30.38,5.0,Calm,Calm,-,N/A,,Clear,0,2012-11-16 13:15:00
8:35 AM,28.4,24.8,86,30.38,7.0,Calm,Calm,-,N/A,,Clear,0,2012-11-16 13:35:00
8:55 AM,28.4,26.6,93,30.40,7.0,Calm,Calm,-,N/A,,Clear,0,2012-11-16 13:55:00
9:15 AM,32.0,30.2,93,30.40,7.0,Calm,Calm,-,N/A,,Clear,0,2012-11-16 14:15:00
9:35 AM,33.8,30.2,87,30.40,7.0,Calm,Calm,-,N/A,,Clear,0,2012-11-16 14:35:00
9:55 AM,35.6,32.0,87,30.40,7.0,Calm,Calm,-,N/A,,Clear,0,2012-11-16 14:55:00
10:15 AM,39.2,32.0,75,30.40,10.0,ENE,3.5,-,N/A,,Clear,60,2012-11-16 15:15:00
10:35 AM,41.0,32.0,70,30.40,10.0,NE,4.6,-,N/A,,Clear,40,2012-11-16 15:35:00
10:55 AM,42.8,32.0,66,30.40,10.0,NE,4.6,-,N/A,,Clear,40,2012-11-16 15:55:00
11:15 AM,44.6,32.0,61,30.40,10.0,ENE,3.5,-,N/A,,Clear,60,2012-11-16 16:15:00
11:35 AM,44.6,32.0,61,30.40,10.0,NE,4.6,-,N/A,,Clear,40,2012-11-16 16:35:00
11:55 AM,46.4,30.2,53,30.40,10.0,NNE,5.8,-,N/A,,Clear,30,2012-11-16 16:55:00
12:15 PM,48.2,32.0,54,30.38,10.0,NNE,3.5,-,N/A,,Clear,30,2012-11-16 17:15:00
12:35 PM,48.2,32.0,54,30.38,10.0,ENE,4.6,-,N/A,,Clear,70,2012-11-16 17:35:00
12:55 PM,48.2,30.2,50,30.38,10.0,NNE,6.9,-,N/A,,Clear,20,2012-11-16 17:55:00
1:15 PM,50.0,30.2,47,30.37,10.0,NNE,5.8,-,N/A,,Clear,20,2012-11-16 18:15:00
1:35 PM,50.0,30.2,47,30.37,10.0,NNE,8.1,-,N/A,,Clear,20,2012-11-16 18:35:00
1:55 PM,50.0,28.4,43,30.37,10.0,North,6.9,-,N/A,,Clear,360,2012-11-16 18:55:00
2:15 PM,50.0,28.4,43,30.37,10.0,North,5.8,-,N/A,,Clear,10,2012-11-16 19:15:00
2:35 PM,51.8,30.2,44,30.36,10.0,NE,4.6,-,N/A,,Clear,40,2012-11-16 19:35:00
2:55 PM,51.8,28.4,41,30.36,10.0,North,8.1,-,N/A,,Clear,10,2012-11-16 19:55:00
3:15 PM,51.8,28.4,41,30.36,10.0,NNE,5.8,-,N/A,,Clear,30,2012-11-16 20:15:00
3:35 PM,51.8,30.2,44,30.37,10.0,North,5.8,-,N/A,,Clear,10,2012-11-16 20:35:00
3:55 PM,51.8,28.4,41,30.37,10.0,North,8.1,-,N/A,,Clear,10,2012-11-16 20:55:00
4:15 PM,50.0,30.2,47,30.37,10.0,North,6.9,-,N/A,,Clear,360,2012-11-16 21:15:00
4:35 PM,50.0,30.2,47,30.38,10.0,North,6.9,-,N/A,,Clear,360,2012-11-16 21:35:00
4:55 PM,50.0,30.2,47,30.38,10.0,NNE,4.6,-,N/A,,Clear,20,2012-11-16 21:55:00
5:15 PM,48.2,30.2,50,30.38,10.0,NNE,4.6,-,N/A,,Clear,20,2012-11-16 22:15:00
5:35 PM,46.4,30.2,53,30.38,10.0,North,4.6,-,N/A,,Clear,360,2012-11-16 22:35:00
6:15 PM,44.6,30.2,57,30.39,10.0,North,5.8,-,N/A,,Clear,360,2012-11-16 23:15:00
6:35 PM,44.6,30.2,57,30.40,10.0,North,4.6,-,N/A,,Clear,10,2012-11-16 23:35:00
6:55 PM,42.8,30.2,61,30.40,10.0,NNE,3.5,-,N/A,,Clear,20,2012-11-16 23:55:00
7:15 PM,42.8,30.2,61,30.40,10.0,NNE,4.6,-,N/A,,Clear,30,2012-11-17 00:15:00
7:35 PM,42.8,30.2,61,30.41,10.0,NNE,3.5,-,N/A,,Clear,30,2012-11-17 00:35:00
7:55 PM,41.0,30.2,65,30.42,10.0,NNE,3.5,-,N/A,,Clear,30,2012-11-17 00:55:00
8:15 PM,41.0,30.2,65,30.41,10.0,NE,3.5,-,N/A,,Clear,50,2012-11-17 01:15:00
8:35 PM,41.0,28.4,61,30.42,10.0,ENE,4.6,-,N/A,,Clear,60,2012-11-17 01:35:00
8:55 PM,39.2,28.4,65,30.42,10.0,NE,3.5,-,N/A,,Clear,50,2012-11-17 01:55:00
9:15 PM,39.2,28.4,65,30.42,10.0,Calm,Calm,-,N/A,,Clear,0,2012-11-17 02:15:00
9:35 PM,39.2,28.4,65,30.43,10.0,NE,4.6,-,N/A,,Clear,50,2012-11-17 02:35:00
9:55 PM,37.4,28.4,70,30.43,10.0,NNE,3.5,-,N/A,,Clear,20,2012-11-17 02:55:00
10:15 PM,37.4,28.4,70,30.43,10.0,ENE,3.5,-,N/A,,Clear,60,2012-11-17 03:15:00
10:35 PM,37.4,28.4,70,30.44,10.0,NE,3.5,-,N/A,,Clear,50,2012-11-17 03:35:00
10:55 PM,35.6,28.4,75,30.43,10.0,ENE,5.8,-,N/A,,Clear,60,2012-11-17 03:55:00
11:15 PM,35.6,28.4,75,30.43,10.0,ENE,5.8,-,N/A,,Clear,60,2012-11-17 04:15:00
11:35 PM,35.6,28.4,75,30.43,10.0,NE,4.6,-,N/A,,Clear,50,2012-11-17 04:35:00
11:55 PM,33.8,28.4,81,30.42,10.0,ENE,4.6,-,N/A,,Clear,60,2012-11-17 04:55:00